This is the latest recevied weather packets stored in our database for station/object KC3UTO. If no packets are shown the sender has not sent any weather packets the latest 10 day(s).
| Time | Temp. | Humidity | Pressure | Rain* | Wind** | Luminosity | Snow |
|---|---|---|---|---|---|---|---|
| 1777577662 | 16.67° C | 58% | 1006.7 hPa | 0 mm | - | 175 W/m² | - |
| 1777577360 | 16.11° C | 59% | 1006.7 hPa | 0 mm | - | 271 W/m² | - |
| 1777577056 | 16.11° C | 58% | 1006.5 hPa | 0 mm | - | 301 W/m² | - |
| 1777576753 | 15.56° C | 60% | 1006.6 hPa | 0 mm | - | 437 W/m² | - |
| 1777576452 | 15.56° C | 58% | 1006.7 hPa | 0 mm | - | 307 W/m² | - |
| 1777576149 | 15.56° C | 58% | 1006.7 hPa | 0 mm | - | 241 W/m² | - |
| 1777575844 | 16.11° C | 60% | 1006.9 hPa | 0 mm | - | 398 W/m² | - |
| 1777575541 | 15.56° C | 60% | 1006.7 hPa | 0 mm | - | 358 W/m² | - |
| 1777575236 | 15.56° C | 60% | 1006.8 hPa | 0 mm | - | 335 W/m² | - |
| 1777574933 | 15° C | 61% | 1006.8 hPa | 0 mm | - | 367 W/m² | - |
| 1777574629 | 15° C | 62% | 1007 hPa | 0 mm | - | 181 W/m² | - |
| 1777574327 | 15° C | 61% | 1006.9 hPa | 0 mm | - | 143 W/m² | - |
| 1777574026 | 15° C | 62% | 1007.1 hPa | 0 mm | - | 176 W/m² | - |
| 1777573721 | 15° C | 62% | 1006.8 hPa | 0 mm | - | 180 W/m² | - |
| 1777573418 | 15° C | 63% | 1006.9 hPa | 0 mm | - | 280 W/m² | - |
| 1777573114 | 15° C | 64% | 1006.9 hPa | 0 mm | - | 606 W/m² | - |
| 1777572811 | 15° C | 65% | 1007 hPa | 0 mm | - | 268 W/m² | - |
| 1777572506 | 14.44° C | 65% | 1006.9 hPa | 0 mm | - | 228 W/m² | - |
| 1777572202 | 14.44° C | 65% | 1007 hPa | 0 mm | - | 197 W/m² | - |
| 1777571897 | 14.44° C | 65% | 1006.9 hPa | 0 mm | - | 90 W/m² | - |
| 1777571593 | 15° C | 63% | 1006.9 hPa | 0 mm | - | 93 W/m² | - |
| 1777571291 | 15.56° C | 63% | 1006.7 hPa | 0 mm | - | 202 W/m² | - |
| 1777570986 | 15.56° C | 65% | 1006.9 hPa | 0 mm | - | 459 W/m² | - |
| 1777570682 | 15° C | 66% | 1006.9 hPa | 0 mm | - | 624 W/m² | - |
| 1777570379 | 14.44° C | 66% | 1007 hPa | 0 mm | - | 235 W/m² | - |
* Rain latest hour (hover to see other rain measurements)
** Current wind speed in m/s (hover to see current wind gust speed)